User: anonymous   Login
Location: ??????
(55.8274°N, 37.9338°E)
Time: 14:49:20
(UTC+00:00)
Language:

MSX - Orbit

View from above orbital plane
View from above orbital plane
View from above satellite
View from above satellite

Ground track
Ground track

The orbit data is extracted from the following two-line orbital elements,

1 23851U 96024A   24165.81906599  .00000111  00000-0  10842-3 0  9996
2 23851  98.9699 105.2808 0008754  97.4747 262.7411 13.98238858435850
Epoch (UTC): 13 June 2024 19:39:27
Eccentricity: 0.0008754
inclination: 98.9699°
perigee height: 893 km
apogee height: 906 km
right ascension of ascending node: 105.2808°
argument of perigee: 97.4747°
revolutions per day: 13.98238858
mean anomaly at epoch: 262.7411°
orbit number at epoch: 43585

The dashed part of the orbit path shows where the satellite is in the earth's shadow,  

DLR